sat.trackr.live / text

‹ back to catalog

STARLINK-5719

NORAD 55609 · 2023-020AS

PAYLOAD ACTIVE UNKNOWN

§ Identity

Operator
Country
US
Launch date
2023-02-12
Launch site
AFETR
Launch vehicle
Mass (kg)
RCS (m²)

Purposes: comms

External: N2YO · Heavens-Above · Gunter

§ Orbital elements

Epoch: 2026-05-25T02:16:02.456832Z

Period
94.27 min
Inclination
43.0029°
Eccentricity
0.0001421
Mean motion
15.27577008 rev/d
Perigee alt
482.1 km
Apogee alt
484.0 km
Semi-major
6,861.2 km
B*
-2.3235e-6
RAAN
282.8093°
Arg perigee
269.8775°
Mean anomaly
90.1914°
Rev number
18,072

§ Raw data

STARLINK-57191 55609U 23020AS  26145.09447288 -.00000326  00000+0 -23235-5 0  99942 55609  43.0029 282.8093 0001421 269.8775  90.1914 15.27577008180723

JSON: /api/v1/satellites/55609 · /tle

For live sub-satellite position, see the globe view (requires WebGL).

§ Visibility from observer

Set your observer location to see the next 7 days of passes ≥ 10°. The values pass through the URL so the page stays shareable.

No JS? Fill the form by hand. The geolocation button needs JavaScript.